Overview Statistics Trail Chart Weather Telemetry Raw packets
 

This is the latest recevied weather packets stored in our database for station/object PA5MB-15. If no packets are shown the sender has not sent any weather packets the latest 10 day(s).

<< 63 64 65 66 67 68 69 >>
Time Temp. Humidity Pressure Rain* Wind** Luminosity Snow
1777571443 20.56° C 20% 1025 hPa 0 mm - 7 W/m² -
1777571138 21.11° C 20% 1025 hPa 0 mm - 8 W/m² -
1777570825 21.11° C 19% 1025 hPa 0 mm - 9 W/m² -
1777570533 21.11° C 19% 1025 hPa 0 mm - 9 W/m² -
1777570221 21.11° C 19% 1025 hPa 0 mm - 10 W/m² -
1777569931 21.11° C 19% 1025 hPa 0 mm - 11 W/m² -
1777569630 21.67° C 19% 1025 hPa 0 mm - 12 W/m² -
1777569330 21.67° C 19% 1025 hPa 0 mm - 13 W/m² -
1777569024 21.11° C 18% 1024.9 hPa 0 mm - 13 W/m² -
1777568739 21.67° C 18% 1024.9 hPa 0 mm - 15 W/m² -
1777568427 21.67° C 18% 1024.9 hPa 0 mm - 16 W/m² -
1777568131 21.67° C 18% 1024.9 hPa 0 mm - 11 W/m² -
1777567827 21.67° C 18% 1024.9 hPa 0 mm - 18 W/m² -
1777567543 21.67° C 18% 1025 hPa 0 mm - 19 W/m² -
1777567231 22.22° C 18% 1025 hPa 0 mm - 19 W/m² -
1777566932 22.22° C 18% 1025 hPa 0 mm - 20 W/m² -
1777566630 21.67° C 18% 1024.9 hPa 0 mm - 19 W/m² -
1777566321 21.67° C 18% 1024.9 hPa 0 mm - 23 W/m² -
1777566031 22.22° C 18% 1025 hPa 0 mm - 24 W/m² -
1777565731 21.67° C 17% 1024.9 hPa 0 mm - 25 W/m² -
1777565433 22.22° C 17% 1024.9 hPa 0 mm - 26 W/m² -
1777565131 22.22° C 17% 1025 hPa 0 mm - 27 W/m² -
1777564831 22.22° C 17% 1024.9 hPa 0 mm - 28 W/m² -
1777564530 21.67° C 17% 1025 hPa 0 mm - 30 W/m² -
1777564257 22.22° C 17% 1024.9 hPa 0 mm - 31 W/m² -

* Rain latest hour (hover to see other rain measurements)
** Current wind speed in m/s (hover to see current wind gust speed)